FW3572 Weather Reports


time (UTC)temp
C
wind
direction
speed
KPH
gust
KPH
rain 1hr
cm
rain 24hr
cm
rain mn
cm
humidity
%
barometer
mb
20260904074020 27 154 0.0 0.0 0.00 0.00 0.00 100 1015.4
20260904073523 27 154 0.0 0.0 0.00 0.00 0.00 100 1015.5
20260904073020 27 154 0.0 0.0 0.00 0.00 0.00 100 1015.4
20260904072520 27 154 0.0 0.0 0.00 0.00 0.00 100 1015.5
20260904072020 27 154 0.0 0.0 0.00 0.00 0.00 100 1015.6
20260904071518 27 154 0.0 0.0 0.00 0.00 0.00 100 1015.6
20260904071017 27 154 0.0 0.0 0.00 0.00 0.00 100 1015.6
20260904070520 27 154 0.0 0.0 0.00 0.00 0.00 100 1015.7
20260904070017 27 154 0.0 0.0 0.00 0.00 0.00 100 1015.7
20260904065515 27 154 0.0 0.0 0.00 0.00 0.00 100 1015.8
20260904065015 27 154 0.0 0.0 0.00 0.00 0.00 100 1015.8
20260904064515 27 154 0.0 0.0 0.00 0.00 0.00 100 1015.8
20260904064014 27 154 0.0 0.0 0.00 0.00 0.00 100 1015.8
20260904063513 27 154 0.0 0.0 0.00 0.00 0.00 100 1015.9
20260904063014 27 154 0.0 0.0 0.00 0.00 0.00 100 1016.0
20260904062512 27 154 0.0 0.0 0.00 0.00 0.00 100 1015.9
20260904062013 27 154 0.0 0.0 0.00 0.00 0.00 100 1015.9
20260904061520 27 154 0.0 0.0 0.00 0.00 0.00 100 1016.0
20260904061017 27 154 0.0 0.0 0.00 0.00 0.00 100 1016.0
20260904060511 27 154 0.0 4.8 0.00 0.00 0.00 100 1016.1
20260904060018 27 154 0.0 8.0 0.00 0.00 0.00 100 1016.2
20260904055510 27 154 1.6 11.3 0.00 0.00 0.00 100 1016.1
20260904055009 27 148 3.2 11.3 0.00 0.00 0.00 100 1016.2
20260904054514 27 152 3.2 9.7 0.00 0.00 0.00 100 1016.3
20260904054008 27 177 3.2 9.7 0.00 0.00 0.00 100 1016.3
20260904053510 27 149 3.2 9.7 0.00 0.00 0.00 100 1016.4
20260904053008 27 151 3.2 9.7 0.00 0.00 0.00 100 1016.4
20260904052512 27 155 3.2 8.0 0.00 0.00 0.00 100 1016.4
20260904052010 27 147 3.2 11.3 0.00 0.00 0.00 100 1016.4
20260904051514 27 157 3.2 12.9 0.00 0.00 0.00 100 1016.4
20260904051008 27 175 3.2 14.5 0.00 0.00 0.00 100 1016.4
20260904050508 27 172 3.2 14.5 0.00 0.00 0.00 100 1016.3
20260904050006 27 177 8.0 14.5 0.00 0.00 0.00 100 1016.4
20260904045508 27 140 6.4 12.9 0.00 0.00 0.00 100 1016.4
20260904045005 27 169 3.2 11.3 0.00 0.00 0.00 100 1016.4
20260904044505 27 136 4.8 12.9 0.00 0.00 0.00 100 1016.4
20260904044006 28 142 0.0 12.9 0.00 0.00 0.00 100 1016.4
20260904043504 28 187 4.8 12.9 0.00 0.00 0.00 100 1016.6
20260904043004 27 158 6.4 12.9 0.00 0.00 0.00 100 1016.5
20260904042504 27 138 4.8 11.3 0.00 0.00 0.00 100 1016.5
20260904042003 27 174 3.2 11.3 0.00 0.00 0.00 100 1016.4
20260904041503 27 143 4.8 14.5 0.00 0.00 0.00 100 1016.4
20260904041003 27 159 6.4 12.9 0.00 0.00 0.00 100 1016.5
20260904040502 27 159 3.2 11.3 0.00 0.00 0.00 100 1016.7
20260904040004 27 155 4.8 11.3 0.00 0.00 0.00 100 1016.5
20260904035603 27 140 0.0 6.4 0.00 0.00 0.00 100 1016.5
20260904035101 27 140 1.6 6.4 0.00 0.00 0.00 100 1016.5
20260904034559 27 142 0.0 6.4 0.00 0.00 0.00 100 1016.5
20260904034101 27 142 0.0 6.4 0.00 0.00 0.00 100 1016.6
20260904033600 27 142 0.0 11.3 0.00 0.00 0.00 100 1016.5
20260904033100 27 141 3.2 11.3 0.00 0.00 0.00 100 1016.5
20260904032559 27 155 1.6 8.0 0.00 0.00 0.00 100 1016.5
20260904032058 27 155 1.6 6.4 0.00 0.00 0.00 100 1016.7
20260904031600 27 132 1.6 6.4 0.00 0.00 0.00 100 1016.6
20260904031058 27 132 1.6 6.4 0.00 0.00 0.00 100 1016.6
20260904030559 27 129 3.2 11.3 0.00 0.00 0.00 100 1016.6
20260904030058 27 134 3.2 11.3 0.00 0.00 0.00 100 1016.7
20260904025558 27 129 1.6 8.0 0.00 0.00 0.00 100 1016.7
20260904025057 26 158 0.0 0.0 0.00 0.00 0.00 100 1016.7
20260904024558 26 159 0.0 0.0 0.00 0.00 0.00 100 1016.9
20260904024100 26 159 0.0 0.0 0.00 0.00 0.00 100 1016.8
20260904023557 27 159 0.0 1.6 0.00 0.00 0.00 100 1016.8
20260904023058 27 159 0.0 4.8 0.00 0.00 0.00 100 1016.9
20260904022557 27 159 1.6 4.8 0.00 0.00 0.00 100 1016.9
20260904022057 27 157 0.0 0.0 0.00 0.00 0.00 100 1016.9
20260904021557 27 157 0.0 0.0 0.00 0.00 0.00 100 1016.9
20260904021057 27 157 0.0 0.0 0.00 0.00 0.00 100 1016.9
20260904020557 27 156 0.0 3.2 0.00 0.00 0.00 100 1016.9
20260904020058 27 156 0.0 8.0 0.00 0.00 0.00 100 1016.9
20260904015556 27 156 1.6 9.7 0.00 0.00 0.00 100 1017.0
20260904015056 27 158 3.2 9.7 0.00 0.00 0.00 100 1017.0
20260904014606 27 146 3.2 11.3 0.00 0.00 0.00 100 1016.9
20260904014056 27 164 4.8 11.3 0.00 0.00 0.00 100 1016.9
20260904013555 27 159 3.2 9.7 0.00 0.00 0.00 100 1016.9
20260904013055 27 150 3.2 11.3 0.00 0.00 0.00 100 1016.9
20260904012556 27 162 4.8 11.3 0.00 0.00 0.00 100 1016.9
20260904012056 27 155 3.2 9.7 0.00 0.00 0.00 100 1016.8
20260904011555 27 161 1.6 8.0 0.00 0.00 0.00 100 1016.7
20260904011155 27 151 0.0 11.3 0.00 0.00 0.00 100 1016.6
20260904010554 26 159 4.8 11.3 0.00 0.00 0.00 100 1016.5
20260904010112 26 156 3.2 9.7 0.00 0.00 0.00 100 1016.5
20260904005559 27 153 0.0 8.0 0.00 0.00 0.00 100 1016.3
20260904005053 26 153 1.6 8.0 0.00 0.00 0.00 100 1016.2
20260904004554 27 149 0.0 4.8 0.00 0.00 0.00 100 1016.2
20260904004053 26 149 1.6 8.0 0.00 0.00 0.00 100 1016.2
20260904003553 27 148 0.0 11.3 0.00 0.00 0.00 100 1016.2
20260904003053 27 148 1.6 11.3 0.00 0.00 0.00 100 1016.2
20260904002655 27 150 3.2 9.7 0.00 0.00 0.00 100 1016.2
20260904002053 27 134 1.6 9.7 0.00 0.00 0.00 100 1016.0
20260904001552 27 150 1.6 12.9 0.00 0.00 0.00 100 1016.1
20260904001052 27 148 4.8 12.9 0.00 0.00 0.00 100 1016.2
20260904000552 27 154 1.6 16.1 0.00 0.00 0.00 100 1016.2
20260904000057 27 143 6.4 16.1 0.00 0.00 0.00 100 1016.3
20260903235552 27 155 6.4 16.1 0.00 0.00 0.00 100 1016.3
20260903235051 27 148 4.8 14.5 0.00 0.00 0.00 100 1016.2
20260903234551 27 140 4.8 16.1 0.00 0.00 0.00 100 1016.1
20260903234051 27 142 1.6 17.7 0.00 0.00 0.00 100 1015.9
20260903233551 27 127 4.8 17.7 0.00 0.00 0.00 100 1015.8
20260903233055 27 200 3.2 17.7 0.00 0.00 0.00 100 1015.8
20260903232551 27 118 6.4 17.7 0.00 0.00 0.00 100 1015.8
20260903232051 27 136 6.4 16.1 0.00 0.00 0.00 100 1015.7
20260903231551 27 136 6.4 16.1 0.00 0.00 0.00 100 1015.8
20260903231051 28 138 6.4 14.5 0.00 0.00 0.00 100 1015.9
20260903230550 28 148 4.8 11.3 0.00 0.00 0.00 100 1016.1
20260903230050 28 142 3.2 20.9 0.00 0.00 0.00 100 1015.9
20260903225549 28 152 11.3 25.7 0.00 0.00 0.00 100 1016.0
20260903225049 28 115 6.4 22.5 0.00 0.00 0.00 100 1016.0
20260903224549 28 155 4.8 14.5 0.00 0.00 0.00 100 1015.9
20260903224052 28 157 3.2 14.5 0.00 0.00 0.00 100 1015.8
20260903223549 28 128 6.4 14.5 0.00 0.00 0.00 100 1015.7
20260903223051 28 101 3.2 17.7 0.00 0.00 0.00 100 1015.6
20260903222549 28 163 8.0 17.7 0.00 0.00 0.00 100 1015.6
20260903222049 28 145 3.2 12.9 0.00 0.00 0.00 100 1015.7
20260903221549 28 109 4.8 20.9 0.00 0.00 0.00 100 1015.5
20260903221048 28 154 8.0 17.7 0.00 0.00 0.00 100 1015.5
20260903220548 28 167 6.4 17.7 0.00 0.00 0.00 100 1015.4
20260903220052 28 120 4.8 17.7 0.00 0.00 0.00 100 1015.6
20260903215547 28 143 11.3 17.7 0.00 0.00 0.00 100 1015.6
20260903215046 28 109 4.8 14.5 0.00 0.00 0.00 100 1015.7
20260903214548 28 184 4.8 16.1 0.00 0.00 0.00 100 1015.6
20260903214047 28 135 4.8 16.1 0.00 0.00 0.00 100 1015.6
20260903213547 28 113 8.0 20.9 0.00 0.00 0.00 100 1015.4
20260903213048 29 126 8.0 20.9 0.00 0.00 0.00 100 1015.4
20260903212546 29 99 8.0 19.3 0.00 0.00 0.00 100 1015.7
20260903212046 29 126 6.4 19.3 0.00 0.00 0.00 100 1015.8
20260903211545 28 130 8.0 19.3 0.00 0.00 0.00 100 1015.5
20260903211047 29 148 11.3 22.5 0.00 0.00 0.00 100 1015.5
20260903210545 29 110 6.4 22.5 0.00 0.00 0.00 100 1015.4
20260903205545 29 100 8.0 20.9 0.00 0.00 0.00 100 1014.6
20260903205044 29 115 9.7 19.3 0.00 0.00 0.00 100 1014.6
20260903204603 29 155 8.0 20.9 0.00 0.00 0.00 100 1014.6
20260903204046 29 132 6.4 20.9 0.00 0.00 0.00 100 1014.3
20260903203543 28 112 3.2 20.9 0.00 0.00 0.00 100 1014.5
20260903203045 28 168 8.0 20.9 0.00 0.00 0.00 100 1014.5
20260903202543 29 126 8.0 16.1 0.00 0.00 0.00 100 1014.5
20260903202043 29 122 4.8 17.7 0.00 0.00 0.00 100 1014.6
20260903201542 29 117 6.4 17.7 0.00 0.00 0.00 100 1015.1
20260903201046 28 120 8.0 17.7 0.00 0.00 0.00 100 1015.4
20260903200542 29 140 8.0 17.7 0.00 0.00 0.00 100 1015.7
20260903200051 29 134 6.4 14.5 0.00 0.00 0.00 100 1015.7
20260903195541 29 111 6.4 16.1 0.00 0.00 0.00 100 1015.4
20260903195043 29 122 6.4 17.7 0.00 0.00 0.00 100 1015.2
20260903194541 29 125 4.8 16.1 0.00 0.00 0.00 100 1015.1
20260903194042 29 77 4.8 12.9 0.00 0.00 0.00 100 1015.3
20260903193542 29 128 4.8 11.3 0.00 0.00 0.00 100 1015.4
20260903193040 29 130 3.2 12.9 0.00 0.00 0.00 100 1015.6
20260903192539 29 80 3.2 12.9 0.00 0.00 0.00 100 1015.7
20260903192042 28 157 3.2 12.9 0.00 0.00 0.00 100 1015.5
20260903191541 28 123 4.8 12.9 0.00 0.00 0.00 100 1015.6
20260903191040 28 117 4.8 12.9 0.00 0.00 0.00 100 1015.6
20260903190539 28 114 3.2 11.3 0.00 0.00 0.00 100 1015.7
20260903190040 28 76 0.0 9.7 0.00 0.00 0.00 100 1015.7
20260903185539 28 163 3.2 12.9 0.00 0.00 0.00 100 1015.6
20260903185039 28 111 4.8 16.1 0.00 0.00 0.00 100 1015.7
20260903184543 28 113 4.8 20.9 0.00 0.00 0.00 100 1015.7
20260903184040 28 71 8.0 20.9 0.00 0.00 0.00 100 1015.7
20260903183538 28 151 1.6 14.5 0.00 0.00 0.00 100 1015.8
20260903183038 28 134 4.8 12.9 0.00 0.00 0.00 100 1016.0
20260903182537 28 121 1.6 11.3 0.00 0.00 0.00 100 1016.0
20260903182037 28 101 3.2 12.9 0.00 0.00 0.00 100 1016.3
20260903181537 29 78 1.6 12.9 0.00 0.00 0.00 100 1016.3
20260903181036 28 117 3.2 19.3 0.00 0.00 0.00 100 1016.3
20260903180537 29 132 1.6 11.3 0.00 0.00 0.00 100 1016.3
20260903180038 28 136 1.6 14.5 0.00 0.00 0.00 100 1016.3
20260903175536 28 64 4.8 14.5 0.00 0.00 0.00 100 1016.3
20260903175036 28 119 4.8 16.1 0.00 0.00 0.00 100 1016.2
20260903174536 29 134 8.0 16.1 0.00 0.00 0.00 100 1016.5
20260903174036 29 137 3.2 12.9 0.00 0.00 0.00 100 1016.3
20260903173535 30 126 4.8 12.9 0.00 0.00 0.00 100 1016.2
20260903173034 30 116 3.2 12.9 0.00 0.00 0.00 100 1016.3
20260903172534 30 109 4.8 11.3 0.00 0.00 0.00 100 1016.4
20260903172034 29 127 4.8 14.5 0.00 0.00 0.00 100 1016.5
20260903171532 29 146 1.6 16.1 0.00 0.00 0.00 100 1016.6
20260903171033 28 118 4.8 17.7 0.00 0.00 0.00 100 1016.4
20260903170535 28 146 4.8 17.7 0.00 0.00 0.00 100 1016.5
20260903170036 28 105 4.8 16.1 0.00 0.00 0.00 100 1016.6
20260903165533 28 123 3.2 16.1 0.00 0.00 0.00 100 1016.6
20260903165032 28 125 1.6 12.9 0.00 0.00 0.00 100 1016.8
20260903164532 28 120 4.8 14.5 0.00 0.00 0.00 100 1016.8
20260903164032 28 105 4.8 14.5 0.00 0.00 0.00 100 1016.9
20260903163534 28 107 1.6 11.3 0.00 0.00 0.00 100 1017.0
20260903163031 28 129 0.0 12.9 0.00 0.00 0.00 100 1017.0
20260903162532 28 146 4.8 12.9 0.00 0.00 0.00 100 1017.0
20260903162032 29 119 4.8 14.5 0.00 0.00 0.00 100 1017.1
20260903161534 29 113 6.4 12.9 0.00 0.00 0.00 100 1017.1
20260903161031 29 111 0.0 8.0 0.00 0.00 0.00 100 1017.0
20260903160532 30 111 3.2 8.0 0.00 0.00 0.00 100 1017.0
20260903160053 29 138 1.6 6.4 0.00 0.00 0.00 100 1016.9
20260903155530 29 120 1.6 9.7 0.00 0.00 0.00 100 1016.9
20260903155031 29 121 1.6 9.7 0.00 0.00 0.00 100 1017.0
20260903154531 30 109 0.0 8.0 0.00 0.00 0.00 100 1017.0
20260903154030 30 128 3.2 11.3 0.00 0.00 0.00 100 1017.0
20260903153529 30 102 3.2 12.9 0.00 0.00 0.00 100 1017.1
20260903153030 29 140 3.2 12.9 0.00 0.00 0.00 100 1017.2
20260903152530 30 107 3.2 9.7 0.00 0.00 0.00 100 1017.3
20260903152030 30 82 1.6 11.3 0.00 0.00 0.00 100 1017.3
20260903151534 30 144 3.2 6.4 0.00 0.00 0.00 100 1017.3
20260903151028 30 212 1.6 12.9 0.00 0.00 0.00 100 1017.3
20260903150527 30 232 3.2 12.9 0.00 0.00 0.00 100 1017.2
20260903150030 30 224 3.2 9.7 0.00 0.00 0.00 100 1017.2
20260903145526 30 197 1.6 12.9 0.00 0.00 0.00 100 1017.2
20260903145026 30 219 4.8 12.9 0.00 0.00 0.00 100 1017.1
20260903144526 30 188 3.2 8.0 0.00 0.00 0.00 100 1017.1
20260903144024 30 197 4.8 8.0 0.00 0.00 0.00 100 1017.2
20260903143523 30 170 3.2 9.7 0.00 0.00 0.00 100 1017.1
20260903143026 30 184 1.6 9.7 0.00 0.00 0.00 100 1017.0
20260903142521 30 178 1.6 14.5 0.00 0.00 0.00 100 1017.1
20260903142019 30 162 4.8 14.5 0.00 0.00 0.00 100 1016.9
20260903141517 29 233 3.2 8.0 0.00 0.00 0.00 100 1016.9
20260903141019 29 224 3.2 8.0 0.00 0.00 0.00 100 1016.9
20260903140514 29 210 3.2 8.0 0.00 0.00 0.00 100 1016.8
20260903140013 29 181 3.2 9.7 0.00 0.00 0.00 100 1016.8
20260903135511 28 175 4.8 9.7 0.00 0.00 0.00 100 1016.7
20260903135012 28 220 3.2 9.7 0.00 0.00 0.00 100 1016.8
20260903134508 28 203 1.6 11.3 0.00 0.00 0.00 100 1016.7
20260903134011 28 221 3.2 8.0 0.00 0.00 0.00 100 1016.6
20260903133508 28 171 4.8 8.0 0.00 0.00 0.00 100 1016.7
20260903133008 28 167 1.6 8.0 0.00 0.00 0.00 100 1016.7
20260903132504 27 161 0.0 8.0 0.00 0.00 0.00 100 1016.7
20260903132004 27 144 1.6 8.0 0.00 0.00 0.00 100 1016.6
20260903131504 27 193 0.0 0.0 0.00 0.00 0.00 100 1016.7
20260903131005 27 193 0.0 0.0 0.00 0.00 0.00 100 1016.7
20260903130504 27 191 0.0 0.0 0.00 0.00 0.00 100 1016.5
20260903130005 26 192 0.0 0.0 0.00 0.00 0.00 100 1016.6
20260903125506 26 204 0.0 0.0 0.00 0.00 0.00 100 1016.7
20260903125004 26 203 0.0 0.0 0.00 0.00 0.00 100 1016.6
20260903124502 26 203 0.0 0.0 0.00 0.00 0.00 100 1016.6
20260903124002 26 202 0.0 0.0 0.00 0.00 0.00 100 1016.6
20260903123504 26 202 0.0 0.0 0.00 0.00 0.00 100 1016.7
20260903123005 26 202 0.0 0.0 0.00 0.00 0.00 100 1016.7
20260903122502 26 202 0.0 0.0 0.00 0.00 0.00 100 1016.7
20260903122003 26 202 0.0 0.0 0.00 0.00 0.00 100 1016.7
20260903121501 26 201 0.0 0.0 0.00 0.00 0.00 100 1016.7
20260903121002 25 201 0.0 0.0 0.00 0.00 0.00 100 1016.7
20260903120502 25 201 0.0 0.0 0.00 0.00 0.00 100 1016.5
20260903120002 25 200 0.0 0.0 0.00 0.00 0.00 100 1016.6
20260903115504 25 200 0.0 0.0 0.00 0.00 0.00 100 1016.4
20260903115001 25 199 0.0 0.0 0.00 0.00 0.00 100 1016.4
20260903114502 25 199 0.0 0.0 0.00 0.00 0.00 100 1016.3
20260903114105 25 199 0.0 0.0 0.00 0.00 0.00 100 1016.2
20260903113603 25 199 0.0 0.0 0.00 0.00 0.00 100 1016.1
20260903113100 25 199 0.0 0.0 0.00 0.00 0.00 100 1016.0
20260903112602 25 199 0.0 0.0 0.00 0.00 0.00 100 1015.9
20260903112100 25 199 0.0 0.0 0.00 0.00 0.00 100 1015.8
20260903111100 25 199 0.0 0.0 0.00 0.00 0.00 100 1015.7
20260903110559 25 199 0.0 0.0 0.00 0.00 0.00 100 1015.6
20260903110059 25 199 0.0 0.0 0.00 0.00 0.00 100 1015.6
20260903105558 25 199 0.0 0.0 0.00 0.00 0.00 100 1015.6
20260903105057 25 199 0.0 0.0 0.00 0.00 0.00 100 1015.4
20260903104558 25 199 0.0 0.0 0.00 0.00 0.00 100 1015.4
20260903104056 25 199 0.0 0.0 0.00 0.00 0.00 100 1015.3
20260903103556 25 199 0.0 0.0 0.00 0.00 0.00 100 1015.3
20260903103056 25 199 0.0 0.0 0.00 0.00 0.00 100 1015.3
20260903102557 25 199 0.0 0.0 0.00 0.00 0.00 100 1015.2
20260903102059 25 199 0.0 0.0 0.00 0.00 0.00 100 1015.3
20260903101556 25 199 0.0 0.0 0.00 0.00 0.00 100 1015.4
20260903101056 25 199 0.0 0.0 0.00 0.00 0.00 100 1015.3
20260903100555 25 199 0.0 0.0 0.00 0.00 0.00 100 1015.2
20260903100059 25 199 0.0 0.0 0.00 0.00 0.00 100 1015.1
20260903095555 25 199 0.0 0.0 0.00 0.00 0.00 100 1015.2
20260903095055 25 199 0.0 0.0 0.00 0.00 0.00 100 1015.1
20260903094601 25 199 0.0 0.0 0.00 0.00 0.00 100 1015.1
20260903094055 25 199 0.0 0.0 0.00 0.00 0.00 100 1015.0
20260903093555 25 199 0.0 0.0 0.00 0.00 0.00 100 1015.0
20260903093117 25 199 0.0 0.0 0.00 0.00 0.00 100 1014.9
20260903092553 25 199 0.0 0.0 0.00 0.00 0.00 100 1014.8
20260903092053 25 199 0.0 0.0 0.00 0.00 0.00 100 1014.8
20260903091553 25 199 0.0 0.0 0.00 0.00 0.00 100 1015.0
20260903091054 25 199 0.0 0.0 0.00 0.00 0.00 100 1015.0
20260903090552 25 199 0.0 0.0 0.00 0.00 0.00 100 1014.9
20260903090053 25 199 0.0 0.0 0.00 0.00 0.00 100 1014.9
20260903085552 25 199 0.0 0.0 0.00 0.00 0.00 100 1014.9
20260903085050 25 198 0.0 0.0 0.00 0.00 0.00 100 1014.9
20260903084550 25 198 0.0 0.0 0.00 0.00 0.00 100 1014.8
20260903084050 26 198 0.0 1.6 0.00 0.00 0.00 100 1014.9
20260903083549 26 198 0.0 1.6 0.00 0.00 0.00 100 1014.9
20260903083048 26 198 0.0 3.2 0.00 0.00 0.00 100 1014.9
20260903082552 26 198 0.0 4.8 0.00 0.00 0.00 100 1014.7
20260903082048 26 199 1.6 4.8 0.00 0.00 0.00 100 1014.7
20260903081549 26 189 0.0 0.0 0.00 0.00 0.00 100 1014.7
20260903081049 26 178 0.0 0.0 0.00 0.00 0.00 100 1014.7
20260903080548 26 178 0.0 4.8 0.00 0.00 0.00 100 1014.7
20260903080057 26 178 0.0 4.8 0.00 0.00 0.00 100 1014.7
20260903075546 26 184 0.0 4.8 0.00 0.00 0.00 100 1014.7
20260903075048 26 175 0.0 1.6 0.00 0.00 0.00 100 1014.8
20260903074601 26 174 0.0 0.0 0.00 0.00 0.00 100 1014.7